Regional Weather Roundup
Issued by NWS Sioux Falls, SD

Home | Current Version | Previous Version | Text Only | Print | Product List | Glossary Off
Versions: 1 2 3 4 5 6 7 8 9 10 11 12 13 14 15 16 17 18 19 20 21 22 23 24 25 26 27 28 29 30 31 32 33 34 35 36 37 38 39 40 41 42 43 44 45 46 47 48 49 50

000
ASUS43 KFSD 230302
RWRFSD

WEATHER ROUNDUP FOR SE SOUTH DAKOTA/SW MINNESOTA/NW IOWA
NATIONAL WEATHER SERVICE SIOUX FALLS SD
1000 PM CDT SAT APR 22 2017

NOTE: "FAIR" INDICATES FEW OR NO CLOUDS BELOW 12,000 FEET WITH NO
SIGNIFICANT WEATHER AND OR OBSTRUCTIONS TO VISIBILITY.


SDZ038>040-050-052>070-230400-
SOUTHEAST SOUTH DAKOTA

CITY           SKY/WX    TMP DP  RH WIND       PRES   REMARKS
BROOKINGS      CLEAR     53  37  54 SW7       30.13S
CHAMBERLAIN    CLEAR     47  38  70 SE8       30.11S
HURON          CLEAR     56  37  49 MISG      30.11S
MADISON        FAIR      54  36  50 SW6       30.15R
MITCHELL       CLEAR     57  39  51 S7        30.14R
SIOUX FALLS    PTCLDY    53  39  59 SW3       30.15R
WINNER         FAIR      56  33  42 S13       30.12S
YANKTON        CLEAR     55  34  44 S6        30.16S
$$

MNZ071-072-080-081-089-090-097-098-230400-
SOUTHWEST MINNESOTA

CITY           SKY/WX    TMP DP  RH WIND       PRES   REMARKS
FAIRMONT       CLEAR     59  35  40 SW6       30.15S
JACKSON        CLEAR     55  32  41 CALM      30.15F
LUVERNE        CLEAR     48  36  61 SW7       30.15S
MARSHALL       CLEAR     54  36  50 SW8       30.12S
MONTEVIDEO     CLEAR     57  36  44 W7        30.11S
PIPESTONE      CLEAR     52  37  58 CALM      30.15R
REDWOOD FALLS  CLEAR     59  32  36 W7        30.11S
TRACY          CLEAR     54  39  56 SW8       30.14R
WINDOM         CLEAR     55  36  47 CALM      30.14S
WORTHINGTON    CLEAR     53  36  52 SW8       30.16S
$$

IAZ001>003-012>014-020>022-031-032-NEZ013-014-SDZ071-230400-
NORTHWEST IOWA

CITY           SKY/WX    TMP DP  RH WIND       PRES   REMARKS
CHEROKEE       CLEAR     49  38  66 CALM      30.18S
DENISON        CLEAR     50  37  62 CALM      30.21R
ESTHERVILLE    CLEAR     51  37  58 SW6       30.15F
LE MARS        CLEAR     50  39  66 CALM      30.19S
ORANGE CITY    CLEAR     50  37  62 W7        30.17F
SHELDON        CLEAR     55  36  47 SW6       30.15S
SIOUX CITY     CLEAR     55  34  45 S3        30.18F
SPENCER        CLEAR     52  35  52 SW6       30.16F
STORM LAKE     CLEAR     57  30  35 W7        30.18S
$$

ABBREVIATIONS USED IN REMARKS
   TC - TEMPERATURE IN CELSIUS
  WCI - WIND CHILL INDEX
   HX - HEAT INDEX
  VSB - VISIBILITY





USA.gov is the U.S. government's official web portal to all federal, state and local government web resources and services.